This is the latest recevied weather packets stored in our database for station/object HK6RM-21. If no packets are shown the sender has not sent any weather packets the latest 10 day(s).
| Time | Temp. | Humidity | Pressure | Rain* | Wind** | Luminosity | Snow |
|---|---|---|---|---|---|---|---|
| 1777708742 | 26.11° C | 95% | 1010 hPa | 0 mm | - | - | - |
| 1777708020 | 26.11° C | 95% | 1010 hPa | 0 mm | - | - | - |
| 1777707300 | 26.11° C | 95% | 1010 hPa | 0 mm | - | - | - |
| 1777706577 | 26.11° C | 94% | 1011 hPa | 0 mm | - | - | - |
| 1777705856 | 26.11° C | 94% | 1011 hPa | 0 mm | - | - | - |
| 1777705135 | 26.11° C | 95% | 1010 hPa | 1.02 mm | - | - | - |
| 1777704415 | 26.11° C | 95% | 1010 hPa | 1.27 mm | - | - | - |
| 1777703694 | 26.11° C | 95% | 1010 hPa | 0.51 mm | - | - | - |
| 1777702974 | 26.11° C | 93% | 1012 hPa | 1.02 mm | - | - | - |
| 1777702253 | 26.67° C | 95% | 1011 hPa | 1.02 mm | - | - | - |
| 1777701531 | 26.67° C | 95% | 1011 hPa | 0 mm | - | - | - |
| 1777700811 | 26.67° C | 95% | 1011 hPa | 0 mm | - | - | - |
| 1777700090 | 26.67° C | 94% | 1011 hPa | 0 mm | - | - | - |
| 1777699368 | 26.67° C | 92% | 1013 hPa | 0 mm | - | - | - |
| 1777698647 | 26.67° C | 91% | 1013 hPa | 0 mm | - | - | - |
| 1777697926 | 26.67° C | 94% | 1012 hPa | 0.76 mm | - | - | - |
| 1777697205 | 26.67° C | 94% | 1012 hPa | 3.56 mm | - | - | - |
| 1777696485 | 26.67° C | 94% | 1012 hPa | 3.3 mm | - | - | - |
| 1777695764 | 27.22° C | 90% | 1013 hPa | 3.56 mm | - | - | - |
| 1777695043 | 27.22° C | 90% | 1013 hPa | 1.52 mm | - | - | - |
| 1777694321 | 27.22° C | 93% | 1012 hPa | 1.27 mm | - | - | - |
| 1777693600 | 27.22° C | 93% | 1012 hPa | 1.02 mm | - | - | - |
| 1777692879 | 27.22° C | 92% | 1012 hPa | 0 mm | - | - | - |
| 1777692158 | 27.78° C | 89% | 1012 hPa | 0 mm | - | - | - |
| 1777691436 | 28.33° C | 89% | 1012 hPa | 0.25 mm | - | - | - |
* Rain latest hour (hover to see other rain measurements)
** Current wind speed in m/s (hover to see current wind gust speed)